Tracking 28125 objects as of 4-Oct-2023
HD Live streaming from Space Station
objects crossing your sky now

STARLINK-5366

Track STARLINK-5366 now!
10-day predictions
STARLINK-5366 is classified as:


NORAD ID: 55499
Int'l Code: 2023-015BC
Perigee: 565.6 km
Apogee: 566.8 km
Inclination: 43.0 °
Period: 95.8 minutes
Semi major axis: 6937 km
RCS: Unknown
Launch date: February 2, 2023
Source: United States (US)
Launch site: AIR FORCE EASTERN TEST RANGE (AFETR)
Your satellite tracking list
Your tracking list is empty




NASA's NSSDC Master Catalog

Two Line Element Set (TLE):
1 55499U 23015BC  23277.30215187  .00000923  00000-0  83393-4 0  9995
2 55499  43.0024 120.2927 0000885 271.7632  88.3109 15.02537883 36919
Source of the keplerian elements: AFSPC